Location: Dana
(41.8364°N, 106.7042°W)
Time: 18:16:18
(UTC+00:00)

Vanguard 3 - Pass Details

Date: 14 May 2026
Orbit: 507 x 3204 km, 33.3° (Epoch: 9 June)

Event Time Altitude Azimuth Distance (km) Brightness Sun altitude
Rises 17:41:14 0° 189° (S) 6,053 11.8 61.1°
Reaches altitude 10° 17:46:34 10° 174° (S) 5,444 11.9 61.8°
Maximum altitude 17:57:39 21° 133° (SE) 5,099 12.0 63.0°
Drops below altitude 10° 18:09:50 10° 94° (E) 6,109 12.0 64.3°
Sets 18:16:16 0° 81° (E) 6,995 12.0 64.9°
